Date,TemperatureHighF,TemperatureAvgF,TemperatureLowF,DewpointHighF,DewpointAvgF,DewpointLowF,HumidityHigh,HumidityAvg,HumidityLow,PressureMaxIn,PressureMinIn,WindSpeedMaxMPH,WindSpeedAvgMPH,GustSpeedMaxMPH,PrecipitationSumIn
2012-12-1,42.1,31.4,26.1,32.4,27.9,25.3,100,88,61,29.89,29.79,7,2,11,0.00
2012-12-2,31.8,28.9,24.8,31.6,27.3,24.6,100,94,85,29.85,29.74,14,4,20,0.00
2012-12-3,35.4,31.1,27.9,31.8,28.9,26.0,100,92,74,29.88,29.63,12,4,17,0.00
2012-12-4,39.2,33.9,30.0,39.0,32.9,25.5,100,96,80,29.62,29.37,14,5,23,0.02
2012-12-5,36.1,32.9,27.9,33.6,30.7,26.8,100,92,73,29.60,29.37,17,4,24,0.00
2012-12-6,33.3,28.9,23.4,32.9,24.4,15.4,100,84,61,29.91,29.56,22,7,30,0.00
2012-12-7,41.4,24.8,16.2,26.8,20.3,15.8,100,84,50,29.90,29.71,11,4,19,0.00
2012-12-8,33.1,20.6,14.2,27.8,18.6,14.0,100,92,71,30.11,29.82,13,3,20,0.00
2012-12-9,30.2,23.3,18.1,29.3,20.4,15.5,100,89,62,30.11,29.64,16,7,25,0.00
2012-12-10,36.3,32.9,30.2,35.4,31.6,-17.3,100,96,10,29.70,29.52,17,6,107,0.01
2012-12-11,30.6,25.2,22.5,30.1,23.7,18.9,100,94,86,30.05,29.70,16,8,31,0.00
2012-12-12,23.9,20.3,14.7,21.9,17.7,12.1,96,90,79,30.09,30.00,12,6,19,0.00
2012-12-13,37.8,24.7,19.0,29.1,22.1,17.6,100,90,63,30.00,29.88,8,3,12,0.00
2012-12-14,35.8,24.9,20.5,24.9,21.6,18.5,100,88,60,29.88,29.66,10,3,15,0.00
2012-12-15,37.2,31.2,22.6,37.0,31.0,22.4,99,99,99,29.74,29.61,11,2,15,0.07
2012-12-16,47.7,39.3,35.4,45.5,38.6,35.2,100,97,83,29.74,29.70,15,4,23,0.08
2012-12-17,39.2,37.6,35.8,38.9,37.3,35.5,99,99,99,29.73,29.68,9,3,14,0.02
2012-12-18,40.8,36.6,34.9,40.6,36.4,34.6,99,99,99,29.99,29.72,5,1,7,0.05
2012-12-19,55.2,37.9,33.8,48.0,37.2,33.4,100,97,72,30.19,29.98,6,2,9,0.01
2012-12-20,36.7,33.5,28.8,36.4,33.3,28.5,100,99,99,30.18,29.90,10,3,16,0.00
2012-12-21,31.8,29.6,26.6,31.6,29.4,26.4,99,99,99,29.98,29.84,6,2,10,0.00
2012-12-22,34.7,31.9,29.8,34.5,31.6,29.6,100,99,96,30.06,29.89,4,1,9,0.01
2012-12-23,46.4,33.5,31.8,46.0,33.3,-39.8,99,99,99,29.89,29.73,8,2,14,0.26
2012-12-24,53.8,43.9,29.5,51.0,42.9,29.2,100,96,84,29.82,29.70,13,3,23,0.00
2012-12-25,47.7,35.4,29.3,44.5,34.9,29.1,100,98,82,29.73,29.59,22,2,28,0.00
2012-12-26,48.0,45.2,40.3,43.0,41.4,38.0,97,86,79,29.86,29.71,16,8,24,0.01
2012-12-27,49.3,44.6,41.7,43.7,41.6,37.3,100,89,76,29.83,29.62,22,7,34,0.14
2012-12-28,42.6,34.9,28.0,42.2,32.6,25.6,100,92,65,30.34,29.70,16,5,30,0.31
2012-12-29,51.6,34.1,28.0,41.0,32.0,27.8,100,93,63,30.32,29.99,10,3,15,0.00
2012-12-30,44.2,32.3,24.3,41.7,31.0,24.0,100,95,73,30.09,29.99,14,3,23,0.00
2012-12-31,48.0,40.2,35.2,39.1,35.6,32.8,93,84,70,30.09,29.84,13,6,24,0.00